Terug naar catalogus

FREGAT DEB

LostUNKNOWN
NORAD 45958·DEBRIS·🇷🇺 Russia

Gelanceerd Jul 18, 2011 vanaf Baikonur Cosmodrome

Loading…

Volgende Passages (komende 24 uur)

TLE

VerouderdSource: Space-Track

Epoch: Aug 20, 2020, 06:59 UTC

1 45958U 11037FP  20233.29127845  .00024011  00000-0  23715-1 0  9998
2 45958  51.3940 203.7217 1796951 181.7345 177.6537 11.02770030  2979

Volg FREGAT DEB in realtime met AllMySat

Download on the App Store